This is the latest recevied weather packets stored in our database for station/object HS5FXK-3. If no packets are shown the sender has not sent any weather packets the latest 10 day(s).
| Time | Temp. | Humidity | Pressure | Rain* | Wind** | Luminosity | Snow |
|---|---|---|---|---|---|---|---|
| 1778054372 | 41.11° C | 33% | 975 hPa | - | - | 0 W/m² | - |
| 1778053426 | 41.11° C | 33% | 975 hPa | - | - | 0 W/m² | - |
| 1778052939 | 42.22° C | 35% | 975 hPa | - | - | 0 W/m² | - |
| 1778051011 | 41.11° C | 35% | 976 hPa | - | - | 0 W/m² | - |
| 1778049847 | 41.67° C | 35% | 976 hPa | - | - | 0 W/m² | - |
| 1778048941 | 41.11° C | 37% | 977 hPa | - | - | 0 W/m² | - |
| 1778048478 | 42.22° C | 36% | 977 hPa | - | - | 0 W/m² | - |
| 1778047820 | 41.67° C | 37% | 977 hPa | - | - | 0 W/m² | - |
| 1778047113 | 41.67° C | 36% | 978 hPa | - | - | 0 W/m² | - |
| 1778046201 | 40.56° C | 38% | 978 hPa | - | - | 0 W/m² | - |
| 1778045377 | 40° C | 39% | 978 hPa | - | - | 0 W/m² | - |
| 1778045049 | 40° C | 39% | 978 hPa | - | - | 0 W/m² | - |
| 1778044101 | 39.44° C | 40% | 978 hPa | - | - | 0 W/m² | - |
| 1778043254 | 39.44° C | 43% | 978 hPa | - | - | 0 W/m² | - |
| 1778042678 | 38.89° C | 42% | 979 hPa | - | - | 0 W/m² | - |
| 1778041907 | 38.89° C | 42% | 979 hPa | - | - | 0 W/m² | - |
| 1778040843 | 37.22° C | 43% | 979 hPa | - | - | 0 W/m² | - |
| 1778040411 | 38.89° C | 42% | 979 hPa | - | - | 0 W/m² | - |
| 1778040006 | 38.33° C | 45% | 979 hPa | - | - | 0 W/m² | - |
| 1778039084 | 35.56° C | 49% | 979 hPa | - | - | 0 W/m² | - |
| 1778038172 | 36.11° C | 48% | 980 hPa | - | - | 0 W/m² | - |
| 1778037548 | 36.11° C | 52% | 980 hPa | - | - | 0 W/m² | - |
| 1778036636 | 35.56° C | 56% | 980 hPa | - | - | 0 W/m² | - |
| 1778035724 | 35° C | 59% | 980 hPa | - | - | 0 W/m² | - |
| 1778034811 | 34.44° C | 62% | 980 hPa | - | - | 0 W/m² | - |
* Rain since midnight (hover to see other rain measurements)
** Current wind speed in m/s (hover to see current wind gust speed)